Location: Chuathbaluk
(61.5726°N, 159.2454°W)
Time: 04:48:25
(UTC+00:00)

Transit 4A - Pass Details

Date: 28 November 2020
Orbit: 864 x 980 km, 66.8° (Epoch: 26 January)

Event Time Altitude Azimuth Distance (km) Brightness Sun altitude
Rises 21:36:18 0° 255° (WSW) 3,670 11.1 6.3°
Reaches altitude 10° 21:38:53 10° 258° (WSW) 2,731 10.4 6.4°
Maximum altitude 21:45:16 64° 340° (NNW) 1,086 8.2 6.5°
Drops below altitude 10° 21:51:39 10° 62° (ENE) 2,734 10.2 6.7°
Sets 21:54:15 0° 66° (ENE) 3,674 10.8 6.7°
